STARLINK-31235, 59038

Orbit data source: Space-Track

STARLINK-31235, 59038 is a payload satellite owned by SpaceX/Seattle (US) in LEO that was launched on Sun, 25 Feb 2024 UTC via an FALCON 9 launch vehicle from the Air Force Eastern Test Range (AFETR). Payload-class satellites include a variety of spacecraft equipped with specific instruments for various scientific and technological missions. These include communications satellites like Starlink; space stations such as the ISS; scientific satellites like the Hubble; Earth observation satellites from companies like Planet Labs, Umbra, and HawkEye 360; GPS; miniature CubeSats for education and research; and military/defense satellites.

Loading next visibility...
Identifier
59038, 2024-038R
Orbit
LEO
Country
Flag of USUS
Related business
Manufacturer
SpaceX/Seattle
Mission
Operational Commercial Communications
Bus & Motor
STARLINK V2M, Unknown motor
Mass
730 kg wet, ~700 kg dry
Launch date (UTC)
2024-02-25 (2 years ago)
Launch vehicle
FALCON 9
Launch site
Air Force Eastern Test Range (AFETR)
Object type
Payload
Rocket body
Debris
Shape & HBR
Box + 2 Pan, 17.7 m
Radar Cross Section
33.884 m², Large (>1 m²)

Expand to show TLE details & history
Last TLE update: 1 day ago

TLE from 1 day ago
0 STARLINK-31235
1 59038U 24038R   25348.71842675  .00005748  00000-0  21820-3 0  9994
2 59038  42.9990 143.3761 0002099 274.4604  85.6008 15.27583338101804
Epoch: 2025-12-14T17:14Z
TLE epoch observation values (Epoch: 2025-12-14T17:14:32.071Z)
Latitude
0.00001°
Longitude
161.11516°
Altitude
482.704 km
Speed
7.626 km/s
True Right ascension
09h 33m 30s
True Declination
0° 00' 00"
Sunlit
Object was in full shadow at epoch
Visualization orbit readout
Latitude
Unknown
Longitude
Unknown
Altitude
Unknown
Speed
Unknown
Apparent Right ascension
Unknown
Apparent Declination
Unknown
Sunlit
N/A
Visualization observer readout
Local Sidereal Time
17:21:59
Azimuth
Unknown
Elevation
Unknown
Doppler factor
Unknown
Orbital elements
Apogee altitude
486.425 km
Perigee altitude
483.544 km
Semi-major axis
6,863.121 km
Eccentricity
0.00021
Inclination
42.999°
RAAN
143.3761°
Arg. of periapsis
274.4604°
True anomaly
85.62478°
Mean anomaly
85.6008°
Eccentric anomaly
85.61279°
Mean motion
3.81734 °/min
Orbital period
94.31 mins
BSTAR
0.0002182
Loading maneuver chart data...
Computing Atmospheric mass density...
Loading historical data...
Loading historical data...
Loading historical data...
Loading historical data...
Loading historical data...
Loading historical data...
Loading historical data...

Documentation

Showing up to 5 results
|